GFSSE_925_thetae_057.txt.gz
Theta_e
329 319 317 317 317 316 318 325 331 338 343 344 344 343 340 337 334 333 332 329 324 317 314 314 313 313 311 310 309 309 309 309 311 316 331 340 342 342 341 343 347 347 341
324 319 317 317 317 316 316 319 326 334 340 343 343 342 339 336 333 331 327 321 315 313 312 311 312 313 315 314 313 312 312 310 309 307 313 325 333 341 342 341 343 346 341
323 319 317 317 317 316 316 317 321 329 336 341 341 340 338 336 333 327 322 315 313 311 311 312 314 315 316 315 315 314 313 313 312 311 308 317 336 339 340 341 340 343 340
322 319 318 318 317 316 315 315 318 325 333 337 339 339 337 333 331 325 318 314 312 311 312 313 315 318 321 322 321 321 321 317 312 315 326 333 333 333 333 340 340 341 339
322 319 319 318 317 316 315 315 316 321 325 330 333 333 331 329 328 323 316 313 311 313 315 316 318 321 325 327 327 328 329 328 318 330 340 332 334 325 323 331 341 339 339
323 321 320 319 318 316 315 315 315 316 319 322 325 326 326 326 325 319 315 312 312 314 318 318 322 326 328 329 330 331 331 330 330 339 339 335 330 328 326 324 336 343 339
325 323 320 320 319 317 316 315 315 315 315 316 320 321 321 323 321 317 313 312 312 315 318 318 325 327 328 331 334 334 332 329 325 329 335 333 333 328 328 325 327 338 342
326 324 321 320 319 318 317 316 315 315 314 314 315 317 319 318 317 315 313 312 312 316 318 319 326 325 327 330 334 334 329 326 324 330 333 336 335 333 331 317 322 333 337
332 327 322 319 319 318 317 316 316 315 314 314 314 314 314 315 314 313 313 313 313 315 318 321 326 325 327 328 330 329 326 325 325 325 331 334 335 334 333 324 313 330 336
340 336 331 320 319 318 317 316 316 315 314 314 314 314 314 313 313 313 313 313 314 315 317 321 326 327 327 327 328 327 326 325 324 331 331 335 335 334 332 325 318 329 333
344 341 339 330 319 319 318 317 316 315 314 314 314 314 314 314 314 314 314 313 314 315 317 321 324 328 329 330 329 328 327 327 326 334 336 337 335 334 332 330 324 331 339
349 345 342 338 331 321 320 319 317 316 315 314 314 314 315 315 315 316 317 315 314 315 316 321 326 329 331 331 330 330 330 334 332 336 336 337 335 333 332 329 325 331 338
344 343 342 342 337 330 324 321 320 317 317 316 315 314 316 317 319 320 321 324 321 318 322 321 326 330 332 332 331 335 338 339 336 336 336 337 334 331 328 323 326 329 334
342 345 346 343 342 337 329 331 332 333 329 323 318 317 318 319 323 322 327 332 330 329 324 325 323 325 330 330 331 334 339 339 339 337 335 335 331 330 328 322 322 327 333
339 342 349 348 345 343 341 339 339 338 338 338 338 336 329 327 327 328 327 333 333 333 331 328 327 327 329 328 330 335 337 339 341 337 334 333 332 332 330 327 322 327 332
337 341 347 345 344 343 344 342 341 341 340 341 342 343 342 339 336 333 332 331 334 335 335 333 332 330 332 333 334 336 338 339 340 336 335 334 334 332 332 330 327 327 335
336 338 337 338 337 338 345 346 344 343 343 343 344 345 345 343 341 338 337 335 335 336 337 335 334 333 334 336 335 337 338 339 338 337 337 336 335 333 332 331 329 328 333
335 336 337 340 338 337 346 343 343 344 346 346 346 346 346 345 344 341 340 338 336 337 337 337 336 336 334 336 338 338 340 339 339 336 337 336 335 334 333 332 331 330 328
334 334 334 340 348 348 346 346 342 339 334 344 347 347 346 347 347 344 341 341 339 338 339 339 338 338 337 336 340 339 337 338 339 338 338 336 335 335 334 333 333 331 330
334 335 334 337 346 347 347 346 341 340 339 340 342 346 347 347 348 347 343 343 342 341 339 339 338 338 337 339 337 337 336 337 338 336 335 335 336 335 335 334 333 332 331
336 337 338 336 337 342 347 346 348 349 348 348 346 343 344 345 346 348 346 344 344 343 343 340 340 338 337 336 335 335 337 338 338 334 334 335 335 334 334 333 332 333 332
335 336 335 334 335 337 338 335 333 332 335 335 334 336 339 343 346 349 348 347 346 345 343 342 340 340 337 337 334 336 333 334 336 335 336 337 336 334 332 332 333 333 332
334 334 334 333 332 333 333 332 330 333 338 339 341 341 341 344 348 349 348 346 345 346 343 343 341 341 337 336 336 335 334 330 328 336 337 335 334 335 334 332 332 332 331
336 333 331 330 330 330 330 329 329 337 342 338 337 340 345 347 348 348 347 347 345 346 344 343 342 341 337 336 335 338 336 334 330 329 334 334 335 335 334 333 332 331 331
333 336 334 333 333 331 330 330 331 339 341 341 339 347 347 347 348 347 347 346 344 347 343 342 342 339 336 338 338 337 335 334 333 328 328 330 334 333 333 332 330 328 329
327 326 327 332 333 331 332 332 332 335 342 342 344 350 348 348 348 347 347 345 344 346 343 344 342 339 339 339 337 335 333 332 330 329 327 327 328 332 332 332 329 329 329

GFSSE_925_thetae_060.txt.gz
Theta_e
336 321 325 326 320 321 325 329 334 338 340 339 339 336 333 330 329 329 329 326 321 316 314 314 314 312 311 310 309 309 309 309 313 324 334 339 341 341 342 343 345 341 339
322 319 324 324 318 318 320 324 328 334 336 337 337 336 332 328 328 327 324 318 314 313 312 311 310 311 311 312 312 312 311 310 308 309 323 326 334 338 341 341 341 343 337
320 319 321 322 317 317 318 321 325 329 332 335 336 334 331 327 325 324 319 314 313 311 311 312 313 313 314 315 315 314 314 313 313 311 309 326 335 330 337 340 342 341 337
320 318 319 321 316 316 317 319 322 325 329 331 332 333 330 326 326 323 317 314 312 312 313 313 314 316 319 320 320 320 319 315 315 318 331 326 332 331 333 339 339 341 338
320 318 318 318 317 317 317 317 319 322 325 328 330 330 329 326 324 321 316 313 312 312 314 315 316 319 323 325 326 327 328 321 321 335 337 330 334 329 327 328 338 339 338
320 318 317 317 317 318 317 317 317 319 320 323 326 327 327 325 323 320 315 313 312 313 315 316 318 322 325 326 328 328 329 329 330 338 337 333 335 327 326 325 327 339 338
320 318 317 316 317 318 317 317 317 317 317 320 324 325 325 323 322 320 315 313 312 314 316 319 320 323 326 328 330 330 327 326 328 330 334 335 332 328 326 328 329 337 339
321 319 317 316 316 317 317 317 316 316 316 317 322 322 321 320 320 318 316 313 312 313 316 319 321 325 327 329 332 332 327 325 324 326 333 333 332 329 330 330 320 331 340
322 319 318 317 316 317 317 316 316 316 316 316 316 316 317 318 318 317 315 314 312 313 315 319 324 325 326 328 330 329 326 326 325 327 329 333 332 330 333 331 321 324 333
325 322 320 319 317 316 316 316 315 315 315 315 315 315 315 315 315 315 314 313 313 313 315 319 325 326 328 328 328 326 326 327 328 329 328 334 333 332 333 330 324 319 329
334 326 324 321 319 317 317 316 315 315 315 315 314 314 314 314 314 314 314 313 313 313 314 317 323 325 328 329 329 326 327 327 328 328 332 333 334 333 333 330 328 324 329
342 332 325 323 321 320 319 317 316 315 315 314 314 314 314 314 315 314 314 314 314 314 315 316 321 325 329 329 328 327 326 328 332 332 335 336 336 334 334 331 328 329 335
339 340 335 324 322 321 321 319 317 317 316 315 315 314 314 315 316 317 317 318 316 316 318 318 320 326 327 328 327 328 326 329 337 336 335 335 336 336 337 330 325 326 334
346 343 338 335 325 321 320 319 319 318 318 317 316 315 315 315 317 319 319 319 319 318 320 319 320 320 324 327 327 328 326 329 337 339 339 337 336 335 332 327 324 324 329
346 347 345 341 335 328 322 321 320 320 319 318 318 317 317 317 318 318 319 320 321 322 326 325 324 322 323 324 326 325 326 329 336 338 340 335 335 332 330 329 326 324 326
339 347 347 345 341 336 331 326 322 322 324 326 328 330 328 326 323 321 321 321 323 325 330 330 330 329 327 327 327 326 327 331 334 337 340 335 333 332 331 331 330 329 332
338 341 346 346 344 340 336 335 336 337 337 338 338 338 339 340 339 337 333 331 329 327 331 333 333 332 331 332 331 331 333 335 337 338 339 334 332 332 332 332 330 330 332
338 340 343 346 345 343 341 341 341 341 341 340 340 340 341 342 343 341 340 338 336 334 332 334 335 334 333 333 333 333 335 336 337 339 338 336 335 335 332 333 331 330 330
335 336 341 343 341 342 343 343 343 343 342 343 342 343 343 344 345 343 343 341 339 337 334 336 335 336 335 335 334 333 334 337 338 339 337 336 335 335 334 333 332 332 330
331 336 337 336 334 336 338 340 343 344 345 346 346 347 346 345 346 345 345 343 342 340 337 336 337 337 336 336 336 335 338 338 339 337 335 335 335 335 335 334 332 332 332
327 332 334 335 335 336 342 344 346 347 344 342 339 339 346 345 345 347 347 344 343 341 340 338 338 338 337 338 337 336 335 335 336 335 335 335 333 335 334 334 334 332 332
326 330 334 333 338 339 341 342 345 345 344 341 340 342 344 347 348 347 347 345 344 343 342 341 339 339 338 336 334 334 335 333 335 335 336 334 334 335 334 334 333 332 331
327 330 335 335 335 342 342 344 347 345 341 342 342 340 337 339 339 342 344 347 346 344 344 343 341 340 338 336 335 335 334 334 325 333 335 335 335 334 334 334 333 332 332
326 329 333 337 340 344 345 343 341 335 335 333 331 333 335 337 338 341 345 348 347 345 345 344 342 341 340 336 335 335 334 332 330 329 333 333 334 335 334 334 332 332 332
322 326 330 333 335 341 342 338 335 333 330 327 328 334 336 336 342 345 348 349 347 345 345 344 343 341 340 338 336 336 336 334 332 325 326 327 333 333 333 333 332 331 331
321 327 331 333 334 334 334 334 332 330 329 331 335 340 339 345 348 348 348 347 346 345 345 344 343 342 340 337 338 337 336 332 329 327 325 324 325 331 331 332 331 329 328

GFSSE_925_thetae_063.txt.gz
Theta_e
333 330 332 333 334 334 334 334 336 338 337 334 332 330 329 329 329 329 329 328 326 322 319 318 316 315 313 312 311 311 311 313 319 330 337 340 341 342 342 343 341 339 340
324 330 328 328 331 329 330 331 333 334 334 333 332 330 329 328 328 327 325 321 315 313 313 312 311 310 310 310 310 310 310 309 309 320 326 328 334 338 342 342 342 340 341
321 327 326 323 327 326 327 328 329 331 331 331 330 329 328 327 326 324 320 315 313 312 312 312 312 312 313 314 314 314 314 313 311 309 317 331 330 328 337 339 340 340 337
321 324 322 321 322 323 325 325 326 328 329 329 328 329 327 326 325 321 316 314 313 313 313 314 315 315 317 318 318 318 318 316 316 322 324 326 332 328 334 338 340 340 337
322 324 320 318 320 321 322 323 324 325 327 326 326 326 325 324 322 319 315 314 313 313 314 315 316 318 321 323 324 326 326 320 325 337 335 332 330 328 328 332 335 339 338
323 322 319 317 318 319 321 321 322 323 324 324 324 324 324 323 322 319 315 314 312 313 315 315 317 320 324 326 327 328 329 329 332 336 336 332 329 329 329 328 330 336 338
326 321 319 317 317 319 319 320 321 321 322 322 322 322 323 324 323 320 316 314 313 313 315 317 317 321 324 326 327 328 328 328 332 331 334 335 330 329 329 329 330 332 337
321 320 319 317 317 318 318 319 319 320 320 320 320 320 321 323 322 321 317 314 313 313 315 317 318 323 325 327 328 328 327 327 328 326 332 332 334 331 330 330 326 328 335
327 324 319 317 317 318 317 318 318 318 318 319 319 319 319 319 319 319 318 315 314 313 314 317 319 322 326 328 328 328 327 326 328 326 327 331 334 331 329 331 326 325 332
329 325 320 318 317 318 318 317 317 317 317 317 317 318 318 318 319 318 317 315 314 313 313 316 318 325 325 328 327 326 326 327 328 327 328 330 334 331 331 332 328 325 330
331 327 321 318 318 318 319 318 317 317 317 317 317 316 317 318 319 318 316 315 314 313 313 315 318 324 326 327 328 326 326 327 328 328 328 331 334 332 332 333 328 328 328
335 331 325 321 319 320 320 319 317 317 316 317 317 316 316 316 316 316 315 314 314 314 314 314 316 322 327 325 326 327 326 327 328 331 331 333 335 335 334 334 330 328 327
334 333 326 321 319 321 320 319 317 317 316 316 316 316 315 315 316 316 316 316 315 314 315 317 317 321 323 325 325 326 326 327 327 333 336 334 335 336 337 334 331 327 328
336 326 324 323 320 320 320 319 318 317 317 317 316 316 316 316 317 318 318 318 318 317 316 318 318 319 321 323 324 325 325 326 326 329 337 338 337 336 335 333 331 328 327
341 340 334 326 324 321 321 320 319 318 318 317 317 316 317 318 318 318 318 320 320 319 318 319 320 320 321 322 323 324 324 324 325 328 336 338 339 335 335 332 330 327 327
338 343 343 335 326 327 325 323 321 320 319 319 318 318 318 319 319 318 319 319 321 321 320 321 323 325 326 326 325 325 324 323 324 328 333 337 340 334 334 332 334 330 329
334 339 343 342 339 331 326 325 323 322 321 320 320 320 320 321 322 322 322 322 323 322 323 325 327 329 330 330 330 330 330 327 330 334 335 337 339 335 333 333 332 333 333
336 335 342 344 344 340 333 328 326 324 323 322 322 329 331 333 334 334 334 334 336 332 330 329 329 331 332 333 332 333 332 331 333 335 336 339 337 335 333 333 332 332 331
330 337 340 346 346 344 341 338 334 330 329 333 334 337 338 338 339 339 340 340 340 338 335 333 332 332 333 334 334 334 334 333 333 336 336 339 338 336 334 334 333 332 332
328 331 337 341 345 345 343 340 338 336 339 340 340 340 340 340 341 342 342 342 341 339 338 336 334 334 334 335 335 334 335 335 334 336 337 338 336 335 335 334 333 332 332
325 330 333 336 341 344 344 344 343 343 342 343 343 343 343 344 344 344 345 344 343 341 341 339 335 335 335 335 334 334 335 336 337 338 338 336 334 334 334 334 334 333 332
318 324 329 334 336 341 341 344 344 344 341 337 344 345 345 343 339 347 347 345 345 343 341 339 337 336 336 336 335 332 331 333 335 336 336 335 335 334 334 334 334 334 333
314 318 324 328 333 338 337 340 342 343 344 345 345 344 343 337 338 342 344 345 346 344 343 341 339 337 337 337 336 334 334 334 327 331 334 335 335 334 334 334 333 333 332
312 313 316 325 328 330 333 341 343 341 343 342 341 342 340 340 341 342 341 343 345 344 343 343 341 340 338 336 334 334 334 332 329 328 331 332 333 333 334 334 333 333 332
312 312 314 318 330 332 335 342 343 341 340 340 340 339 337 335 337 336 338 340 344 345 346 344 343 342 340 338 336 334 333 332 331 328 328 326 331 332 332 333 333 332 331
316 315 313 316 323 333 337 339 341 340 338 338 335 332 332 335 337 338 343 344 345 347 346 345 344 342 341 339 337 336 335 333 328 326 324 323 324 329 331 331 331 331 330

GFSSE_925_thetae_069.txt.gz
Theta_e
337 348 351 342 339 333 335 344 347 348 349 349 349 347 347 345 342 339 338 338 335 329 325 325 325 327 329 326 322 317 315 317 323 335 340 341 341 341 342 341 338 344 340
334 349 352 343 340 335 330 335 343 347 349 348 348 347 343 338 340 336 336 331 326 322 322 320 318 315 313 310 310 309 310 314 322 328 336 339 340 342 342 341 340 343 338
338 349 351 343 340 337 333 329 331 338 340 341 338 333 330 330 330 331 326 323 321 319 316 314 311 311 311 312 312 311 310 309 316 322 328 335 337 336 340 342 340 339 336
340 343 351 342 342 338 334 331 329 328 327 326 324 324 324 325 324 323 321 318 316 314 313 312 313 314 315 316 315 314 312 311 312 316 329 332 335 329 334 340 341 340 338
342 345 346 339 343 339 335 331 328 326 324 322 321 321 321 322 321 320 317 314 314 314 315 315 317 318 319 320 320 317 314 320 330 334 336 335 333 331 329 336 341 341 338
340 344 335 336 344 339 336 331 328 325 323 321 320 320 321 320 320 318 315 314 314 316 319 318 319 320 322 324 327 325 318 323 332 337 335 335 333 330 327 332 336 338 339
339 342 340 335 342 340 337 333 330 324 323 321 321 321 320 320 320 318 315 314 314 316 316 317 318 320 322 325 327 328 328 326 335 337 336 335 334 330 328 330 335 338 336
340 343 345 332 338 339 336 334 331 326 323 322 321 320 320 320 319 318 315 315 314 316 316 316 317 319 321 323 326 327 327 328 333 334 334 335 334 331 330 330 335 335 334
339 341 346 339 334 336 334 334 333 330 327 324 323 321 321 320 319 318 317 315 314 314 315 317 317 318 320 321 325 327 328 326 333 332 331 331 333 334 333 331 333 333 331
337 338 344 346 345 346 343 332 332 331 330 327 325 324 322 322 322 321 320 316 315 314 315 317 318 318 319 320 323 325 327 327 335 333 332 333 331 333 333 332 333 333 331
336 339 341 343 345 345 345 342 331 331 331 330 328 329 327 334 334 328 324 321 317 315 315 317 318 318 321 322 324 325 327 334 334 334 335 330 328 333 333 333 333 334 330
334 337 339 343 345 345 345 347 344 342 343 344 344 343 340 344 343 340 336 324 320 317 316 316 319 322 326 333 333 329 333 335 334 334 336 331 330 332 335 334 333 334 331
333 335 339 342 343 343 341 344 346 345 345 346 343 341 342 343 340 338 339 335 331 325 332 330 333 333 333 333 332 333 334 335 333 333 332 332 332 334 335 335 335 334 331
334 333 337 340 337 337 340 339 341 342 339 335 335 330 334 332 335 336 337 337 336 333 333 333 333 333 334 333 332 332 332 332 331 332 332 328 336 336 336 335 334 333 332
336 335 329 328 328 333 333 336 337 336 331 326 328 326 329 335 333 333 333 333 331 332 329 332 333 334 333 333 332 332 330 331 332 331 331 327 327 336 338 338 334 332 332
331 336 333 326 324 328 329 330 330 329 326 330 330 326 324 326 332 331 328 328 330 330 330 330 331 332 332 332 332 333 332 332 333 333 330 330 323 329 336 339 334 333 332
321 323 336 333 329 324 327 330 330 326 326 325 325 324 324 324 324 323 322 322 321 329 327 326 327 332 332 333 333 334 334 335 335 335 334 332 334 331 335 338 336 333 333
315 317 321 335 338 333 327 324 323 329 327 322 324 322 320 322 322 322 322 320 321 322 329 332 332 333 333 334 334 335 336 336 336 336 335 336 338 339 338 338 337 334 333
314 313 322 319 338 340 334 331 327 329 324 323 326 325 322 323 322 323 322 324 325 325 327 333 334 334 335 336 335 336 336 336 338 337 337 338 339 339 340 339 337 335 334
311 312 312 313 318 329 343 339 334 333 329 328 327 325 326 325 326 325 324 326 334 333 333 334 336 336 337 337 336 336 337 337 338 338 338 338 338 339 341 339 338 337 335
313 312 313 313 314 327 344 343 340 337 334 332 330 328 328 328 324 331 333 335 332 334 337 337 338 338 337 337 336 338 338 338 339 339 340 339 339 339 338 339 337 337 337
315 314 314 314 315 323 337 342 343 343 342 340 338 336 333 328 332 331 332 331 336 335 339 339 339 339 339 337 339 340 343 341 339 339 339 340 340 340 339 338 337 336 336
316 314 314 314 315 316 321 334 342 343 344 343 342 341 337 333 336 334 330 332 336 339 341 341 340 340 340 337 338 342 343 342 339 336 338 338 339 338 337 337 337 337 337
314 314 314 313 315 317 318 325 335 338 341 342 344 344 342 336 338 338 331 331 338 342 342 342 341 340 340 341 338 338 338 339 340 340 335 336 336 337 337 336 336 336 336
313 314 315 314 314 317 317 321 326 336 339 341 344 345 344 343 341 339 337 339 343 343 343 342 340 340 340 342 341 339 338 337 336 339 340 337 334 335 335 335 335 335 335
314 314 315 316 316 316 316 317 323 327 335 338 343 343 344 343 343 341 342 345 344 343 343 341 341 341 341 342 341 338 338 337 338 338 338 339 337 336 333 333 334 334 334

GFSSE_925_thetae_072.txt.gz
Theta_e
338 350 342 341 338 339 344 345 347 347 345 346 345 344 343 342 341 339 338 339 338 336 333 331 330 332 334 334 329 320 315 318 327 336 337 339 340 341 343 341 344 345 334
339 350 341 340 336 338 343 346 348 348 347 347 347 345 344 342 340 334 336 334 331 326 324 323 323 322 317 313 311 310 312 318 323 327 333 333 337 340 341 341 341 342 337
341 349 344 340 336 338 343 345 347 347 348 348 347 346 345 339 336 332 332 327 323 321 320 318 315 311 310 310 310 309 309 314 319 322 332 336 337 331 337 342 340 339 337
343 349 346 340 337 334 343 343 346 347 348 348 347 345 338 334 329 327 324 322 319 316 314 312 312 312 313 314 313 312 310 309 316 325 333 335 335 327 331 342 340 340 338
345 347 347 338 338 333 336 343 344 346 347 345 342 335 330 328 324 322 320 318 315 314 313 313 315 316 317 317 316 313 312 315 320 337 336 337 337 333 329 332 341 336 338
344 346 350 337 339 336 332 336 341 343 342 336 328 325 324 324 321 320 318 315 314 314 315 316 318 320 321 322 322 316 316 324 333 337 337 336 337 334 329 332 332 332 335
342 343 352 338 337 338 335 332 333 333 333 326 322 323 322 321 320 319 316 315 315 316 317 318 320 322 323 324 325 325 320 323 338 337 338 338 338 331 329 331 333 333 331
340 342 350 340 335 337 337 334 331 329 326 324 321 321 320 320 320 318 316 315 315 317 318 318 319 321 324 325 325 326 326 326 333 335 336 337 338 331 330 330 334 334 330
339 342 348 348 341 337 337 336 333 331 327 324 322 321 322 322 321 319 316 315 315 318 318 317 318 319 322 325 326 326 326 324 336 333 332 332 334 333 332 331 333 333 330
339 341 345 347 346 347 346 338 335 333 329 327 325 323 323 325 324 322 318 317 317 319 319 317 318 318 321 323 326 327 327 325 332 334 333 334 331 332 334 333 332 334 330
337 339 342 342 343 344 343 345 337 335 333 330 329 327 327 337 337 338 329 331 318 319 321 320 319 319 321 322 325 327 327 331 334 333 333 335 328 331 333 334 333 334 332
335 337 339 341 342 342 341 343 346 345 344 343 342 343 341 339 340 338 338 332 328 319 322 323 324 325 328 329 333 329 331 330 333 332 332 336 329 331 333 334 334 334 333
334 335 338 342 343 343 340 341 344 342 343 344 344 345 345 342 342 342 339 341 337 332 333 333 333 333 332 331 331 331 331 332 331 331 331 332 331 331 334 336 336 334 333
337 333 336 341 346 346 342 342 342 341 342 343 345 348 347 346 344 342 338 337 338 335 335 333 333 334 334 333 332 330 331 330 329 330 330 331 330 334 335 335 335 334 333
336 338 335 337 343 345 346 341 341 342 342 342 344 347 346 344 342 341 339 337 335 334 333 333 333 333 334 334 333 333 332 331 331 330 329 331 329 331 336 337 337 333 332
335 333 336 338 340 343 343 342 340 341 340 343 342 342 346 343 341 340 340 338 334 332 331 331 332 333 334 334 334 336 334 334 333 333 333 333 330 324 331 336 338 334 333
326 324 332 337 339 342 341 342 340 338 340 338 338 341 343 344 341 340 336 335 332 332 335 334 334 335 335 334 336 336 337 337 337 338 339 337 333 330 324 331 338 336 333
322 321 321 334 339 342 342 342 339 337 337 336 338 336 337 340 340 340 333 332 332 333 334 334 335 337 337 338 339 340 340 339 339 340 340 334 334 338 338 336 337 338 335
320 322 322 321 335 342 344 343 340 338 338 335 335 330 330 336 337 334 332 332 324 332 335 336 338 339 339 341 342 341 341 340 340 340 340 338 340 340 340 341 339 337 336
319 321 323 324 329 335 341 345 343 340 338 336 334 334 336 337 336 335 333 324 325 330 336 336 338 339 342 343 343 342 341 341 340 341 341 340 340 341 342 342 341 339 336
320 322 321 324 322 322 337 339 343 341 343 341 338 335 337 337 337 336 333 327 329 332 331 332 333 342 344 344 344 344 343 343 342 341 341 341 341 341 341 342 342 339 339
320 322 322 323 324 324 329 333 334 338 342 345 342 337 336 337 337 336 329 335 335 335 338 339 342 344 345 345 345 344 348 345 343 343 342 342 342 341 341 341 340 340 340
318 319 319 322 323 325 326 326 328 332 333 343 346 344 341 340 339 333 331 338 337 340 341 342 345 346 345 345 344 345 348 346 343 343 343 342 342 341 339 340 340 340 340
317 317 319 321 323 323 326 325 327 334 341 340 342 344 345 344 342 339 341 339 342 340 340 345 347 347 347 346 344 343 345 344 344 344 340 341 341 341 340 338 338 338 338
317 318 319 321 322 324 326 327 327 328 329 332 337 343 348 348 346 343 342 343 343 343 343 345 348 348 346 346 345 345 345 344 343 343 342 340 339 338 338 339 337 335 336
318 319 320 321 322 323 324 325 327 328 329 330 331 338 344 349 349 348 344 346 344 343 346 349 349 348 346 345 346 346 345 345 343 342 341 342 339 338 338 337 336 335 335

GFSSE_925_thetae_075.txt.gz
Theta_e
347 347 339 341 342 344 346 347 344 342 339 341 342 342 340 340 339 341 342 341 342 342 339 337 335 332 333 333 329 319 315 321 329 335 335 336 339 343 341 342 346 343 332
347 346 339 340 340 342 344 346 346 344 342 343 344 343 341 342 340 337 339 338 338 332 328 327 326 327 323 316 312 312 315 318 321 325 332 330 333 339 340 338 345 341 333
348 347 344 338 338 340 344 345 347 346 344 345 345 344 342 342 339 334 334 332 329 323 322 320 318 314 312 310 310 310 312 315 319 333 337 343 337 329 332 334 340 338 336
350 348 346 337 336 337 344 347 347 347 346 347 346 344 343 340 336 332 331 326 322 319 318 316 313 312 313 313 312 310 309 314 320 331 336 336 337 325 331 331 334 339 338
348 349 346 338 334 335 343 346 347 347 347 347 346 345 342 336 333 329 325 320 318 316 314 313 313 315 316 316 315 312 310 315 325 337 337 338 338 333 330 338 341 337 340
346 349 348 338 334 334 340 345 348 347 347 347 346 344 337 332 328 326 321 318 316 315 315 315 317 318 319 320 318 314 316 326 332 342 337 336 339 335 331 332 337 336 335
344 347 350 339 336 333 334 345 347 348 347 347 345 340 333 330 326 323 320 316 315 316 318 318 319 320 321 323 325 321 317 323 337 340 338 338 341 336 331 332 332 331 330
344 346 354 340 338 334 332 338 344 347 349 348 345 338 332 329 326 321 319 315 315 316 320 319 320 323 325 325 325 326 326 324 336 335 336 337 340 335 331 331 333 332 330
343 345 354 346 344 337 334 332 335 342 347 347 342 337 331 328 324 322 319 316 316 317 320 322 321 322 326 327 327 326 326 324 331 336 334 333 338 332 332 331 333 333 331
342 343 352 346 347 347 344 335 332 332 335 338 337 336 331 326 325 323 320 317 316 318 320 322 323 321 323 324 326 327 327 326 328 332 334 335 334 332 333 333 333 334 331
340 342 347 345 345 345 343 345 335 334 332 332 333 332 329 336 336 337 329 330 320 317 318 322 321 323 321 321 322 324 325 332 331 334 333 336 335 329 332 334 334 334 334
339 341 343 343 344 344 341 344 345 344 342 342 340 342 340 337 338 338 337 331 330 322 319 321 322 324 325 329 331 332 333 330 330 333 333 334 335 330 332 334 335 334 334
338 339 340 343 344 343 340 342 345 341 342 343 343 342 343 338 338 341 340 340 340 335 333 332 335 335 332 332 332 334 335 335 334 334 333 333 332 331 331 335 335 335 334
339 336 337 342 343 344 341 340 343 340 342 342 343 344 345 343 342 343 342 342 343 339 339 334 336 337 337 336 335 334 333 334 333 332 333 333 331 329 331 335 336 336 335
335 339 336 339 345 348 347 343 341 342 340 341 342 345 346 347 345 345 343 339 338 338 337 337 335 334 335 337 337 336 336 336 335 334 332 333 331 329 330 335 336 335 333
337 337 340 337 341 346 349 349 347 345 342 342 343 345 349 347 346 344 343 341 338 336 334 333 334 335 337 338 338 337 339 339 338 336 335 334 334 333 326 332 336 337 335
331 335 336 338 339 343 346 347 347 344 345 343 343 345 347 349 346 344 342 341 338 335 334 334 334 335 338 338 339 340 341 341 341 340 339 339 340 335 331 322 331 337 337
325 326 330 335 340 343 345 346 344 342 341 342 343 342 343 348 346 345 340 339 335 334 335 338 339 340 340 341 342 342 343 343 343 342 342 342 340 335 334 336 324 332 338
323 325 327 329 332 344 344 346 345 342 340 338 338 337 341 344 345 344 340 336 334 334 337 339 340 340 342 340 343 344 344 345 345 343 343 342 340 338 341 341 337 337 338
324 326 327 327 329 329 346 344 346 345 342 340 338 338 338 340 341 338 338 334 335 336 337 338 341 341 343 344 344 344 345 345 345 344 343 343 342 342 342 342 342 342 338
323 326 326 327 327 321 333 344 346 344 343 342 341 338 338 339 341 340 337 335 338 337 337 340 344 345 344 345 346 346 346 346 345 345 344 343 343 342 342 341 341 343 341
322 323 324 326 327 327 327 329 342 342 345 344 343 343 341 338 340 341 340 336 338 338 340 344 345 344 345 346 347 345 348 345 347 346 345 344 343 342 342 340 341 341 340
321 321 322 324 326 328 325 327 325 333 340 341 346 346 347 343 341 341 341 336 338 339 342 344 345 344 342 347 348 347 346 348 346 347 346 344 343 342 341 340 340 339 340
320 320 321 323 325 323 326 328 328 332 335 337 336 338 342 347 344 341 341 341 340 345 343 346 346 347 349 344 348 348 346 348 350 345 344 344 343 343 342 340 339 340 338
318 319 321 323 325 326 326 328 330 328 327 329 331 338 333 342 347 345 344 344 345 345 344 344 349 350 349 350 345 347 346 346 348 349 351 343 343 341 340 340 337 338 338
318 319 322 324 325 326 326 328 329 331 331 332 332 336 336 340 344 332 346 346 346 347 345 347 347 344 334 349 349 345 345 347 347 348 347 348 344 342 339 337 337 337 335